DW0884 Weather Reports


time (UTC)temp
C
wind
direction
speed
KPH
gust
KPH
rain 1hr
cm
rain 24hr
cm
rain mn
cm
humidity
%
barometer
mb
20260505093054 12 111 3.2 9.7 0.00 0.00 0.00 77 1011.6
20260505091556 13 99 6.4 14.5 0.00 0.00 0.00 76 1011.5
20260505084556 13 90 6.4 14.5 0.00 0.00 0.00 73 1011.2
20260505083100 13 118 6.4 12.9 0.00 0.00 0.00 73 1011.0
20260505081600 12 105 3.2 6.4 0.00 0.00 0.00 76 1010.8
20260505080053 13 152 0.0 3.2 0.00 0.00 0.00 74 1010.8
20260505074557 13 111 1.6 4.8 0.00 0.00 0.00 74 1010.6
20260505073058 13 120 1.6 3.2 0.00 0.00 0.00 74 1010.3
20260505071555 13 126 1.6 4.8 0.00 0.00 0.00 74 1010.2
20260505070055 14 128 1.6 4.8 0.00 0.00 0.00 73 1010.0
20260505064554 13 0 1.6 9.7 0.00 0.00 0.00 74 1009.8
20260505063055 12 137 1.6 6.4 0.00 0.00 0.00 79 1009.9
20260505061553 12 0 0.0 0.0 0.00 0.00 0.00 82 1009.8
20260505060059 12 0 0.0 0.0 0.00 0.00 0.00 81 1009.7
20260505054558 13 0 0.0 0.0 0.00 0.00 0.00 80 1009.7
20260505053056 13 0 0.0 0.0 0.00 0.00 0.00 78 1009.5
20260505051555 13 0 0.0 0.0 0.00 0.00 0.00 78 1009.3
20260505041554 16 0 0.0 0.0 0.00 0.00 0.00 70 1008.8
20260505034552 17 0 0.0 0.0 0.00 0.00 0.00 66 1008.5
20260505033051 18 0 0.0 0.0 0.00 0.00 0.00 64 1008.3
20260505031601 18 0 0.0 0.0 0.00 0.00 0.00 60 1008.2
20260505030058 19 0 0.0 0.0 0.00 0.00 0.00 58 1008.2
20260505024554 20 0 0.0 3.2 0.00 0.00 0.00 54 1008.1
20260505023055 20 0 0.0 3.2 0.00 0.00 0.00 53 1008.1
20260505021555 20 0 0.0 3.2 0.00 0.00 0.00 53 1008.3
20260505020056 21 148 1.6 4.8 0.00 0.00 0.00 51 1008.3
20260505014605 21 142 1.6 8.0 0.00 0.00 0.00 52 1008.5
20260505013058 21 195 1.6 8.0 0.00 0.00 0.00 51 1008.6
20260505011555 21 161 1.6 11.3 0.00 0.00 0.00 51 1008.7
20260505010056 22 168 0.0 4.8 0.00 0.00 0.00 50 1008.9
20260505004558 22 204 1.6 4.8 0.00 0.00 0.00 50 1008.8
20260505003054 23 220 1.6 8.0 0.00 0.00 0.00 47 1008.8
20260505001557 23 209 1.6 4.8 0.00 0.00 0.00 46 1008.9
20260505000057 23 268 0.0 6.4 0.00 0.00 0.00 49 1009.0
20260504234553 23 297 1.6 6.4 0.00 0.00 0.00 44 1009.1
20260504233052 23 235 1.6 6.4 0.00 0.00 0.00 45 1009.2
20260504231556 23 275 1.6 8.0 0.00 0.00 0.00 44 1009.3
20260504230052 23 281 1.6 6.4 0.00 0.00 0.00 44 1009.3
20260504224554 22 290 3.2 6.4 0.00 0.00 0.00 47 1009.6
20260504223054 22 129 3.2 8.0 0.00 0.00 0.00 46 1009.5
20260504221553 22 196 1.6 8.0 0.00 0.00 0.00 44 1009.7
20260504220101 23 275 3.2 8.0 0.00 0.00 0.00 44 1009.7
20260504214604 22 284 1.6 8.0 0.00 0.00 0.00 51 1009.7
20260504213054 22 236 4.8 8.0 0.00 0.00 0.00 47 1009.9
20260504211555 22 279 6.4 14.5 0.00 0.00 0.00 47 1010.0
20260504204607 22 302 3.2 9.7 0.00 0.00 0.00 47 1010.2
20260504203129 22 130 4.8 11.3 0.00 0.00 0.00 45 1010.2
20260504201554 23 221 1.6 12.9 0.00 0.00 0.00 43 1010.3
20260504200051 23 233 0.0 8.0 0.00 0.00 0.00 48 1010.4
20260504194549 22 352 4.8 11.3 0.00 0.00 0.00 43 1010.5
20260504193052 22 236 4.8 9.7 0.00 0.00 0.00 45 1010.3
20260504191557 22 284 3.2 12.9 0.00 0.00 0.00 46 1010.3
20260504190055 23 26 3.2 11.3 0.00 0.00 0.00 47 1010.4
20260504184559 22 266 3.2 14.5 0.00 0.00 0.00 45 1010.4
20260504183104 22 282 4.8 11.3 0.00 0.00 0.00 49 1010.6
20260504181603 21 250 3.2 9.7 0.00 0.00 0.00 49 1010.5
20260504180116 22 249 3.2 12.9 0.00 0.00 0.00 48 1010.4
20260504174600 21 271 4.8 11.3 0.00 0.00 0.00 49 1010.4
20260504173109 21 262 3.2 9.7 0.00 0.00 0.00 51 1010.4
20260504171615 21 227 3.2 8.0 0.00 0.00 0.00 51 1010.4
20260504170107 21 251 3.2 9.7 0.00 0.00 0.00 52 1010.5
20260504130106 8 0 0.0 0.0 0.00 0.00 0.00 91 1009.6